Location: Fort Worth, Tx
(32.7431°N, 97.3695°W)
Time: 10:19:04
(UTC-05:00)

deb Explorer IX - All Passes

Search period start: 27 January 2023 00:00
Search period end: 06 February 2023 00:00
Orbit: 533 x 1050 km, 38.8° (Epoch: 24 January)

Date Brightness Start Highest point End Pass type
(mag) Time Alt. Az. Time Alt. Az. Time Alt. Az.
27 Jan - 07:07:30 10° SW 07:11:25 50° SSE 07:15:22 10° ENE visible
27 Jan - 08:53:36 10° W 08:57:29 46° NNW 09:01:40 10° ENE daylight
27 Jan - 10:40:07 10° WNW 10:44:06 38° N 10:48:34 10° ENE daylight
27 Jan - 12:26:00 10° WNW 12:30:36 79° NNE 12:35:57 10° ESE daylight
27 Jan - 14:12:20 10° W 14:16:45 30° SSW 14:21:44 10° SSE daylight
28 Jan - 06:35:10 10° SW 06:39:04 44° SSE 06:42:54 10° ENE visible
28 Jan - 08:21:11 10° W 08:25:05 49° NNW 08:29:10 10° ENE daylight
28 Jan - 10:07:47 10° WNW 10:11:39 37° N 10:15:54 10° ENE daylight
28 Jan - 11:53:42 10° WNW 11:58:08 73° NNE 12:03:14 10° ESE daylight
28 Jan - 13:39:55 10° W 13:44:15 32° SSW 13:49:11 10° SSE daylight
29 Jan - 06:02:48 10° SW 06:06:41 39° SSE 06:10:26 10° E visible
29 Jan - 07:48:43 10° W 07:52:39 52° NNW 07:56:41 10° ENE visible
29 Jan - 09:35:24 10° WNW 09:39:11 35° N 09:43:15 10° ENE daylight
29 Jan - 11:21:23 10° WNW 11:25:40 66° NNE 11:30:32 10° ESE daylight
29 Jan - 13:07:30 10° W 13:11:45 35° SSW 13:16:36 10° SSE daylight
30 Jan - 05:30:24 10° SW 05:34:17 35° SSE 05:37:58 10° E visible
30 Jan - 07:16:13 10° W 07:20:13 56° NNW 07:24:12 10° ENE visible
30 Jan - 09:02:59 10° WNW 09:06:42 34° N 09:10:37 10° ENE daylight
30 Jan - 10:49:02 10° WNW 10:53:11 61° NNE 10:57:49 10° E daylight
30 Jan - 12:35:04 10° W 12:39:16 38° SSW 12:44:01 10° SE daylight
31 Jan - 04:57:57 10° SSW 05:01:51 31° SSE 05:05:29 10° E visible
31 Jan - 06:43:40 10° W 06:47:45 61° NNW 06:51:44 10° ENE visible
31 Jan - 08:30:30 10° WNW 08:34:12 34° N 08:38:00 10° ENE daylight
31 Jan - 10:16:38 10° WNW 10:20:41 55° NNE 10:25:07 10° E daylight
31 Jan - 12:02:38 10° W 12:06:45 41° SSW 12:11:25 10° SE daylight
01 Feb - 04:25:29 10° SSW 04:29:23 28° SSE 04:32:58 10° E night (unlit)
01 Feb - 06:11:03 10° WSW 06:15:17 67° NNW 06:19:17 10° ENE visible
01 Feb - 07:57:58 10° WNW 08:01:40 34° N 08:05:25 10° ENE visible
01 Feb - 09:44:13 10° WNW 09:48:10 51° NNE 09:52:25 10° E daylight
01 Feb - 11:30:11 10° WNW 11:34:15 45° SSW 11:38:47 10° SE daylight
02 Feb - 03:52:58 10° SSW 03:56:52 26° SSE 04:00:26 10° E night (unlit)
02 Feb - 05:38:24 10° WSW 05:42:46 74° NNW 05:46:49 10° ENE visible
02 Feb - 07:25:22 10° WNW 07:29:08 35° N 07:32:51 10° ENE visible
02 Feb - 09:11:45 10° WNW 09:15:39 47° NNE 09:19:44 10° E daylight
02 Feb - 10:57:42 10° WNW 11:01:44 50° SSW 11:06:10 10° SE daylight
02 Feb - 12:47:10 10° SW 12:47:29 10° SW 12:47:48 10° SW daylight
03 Feb - 03:20:26 10° SSW 03:24:20 24° SSE 03:27:52 10° E night (unlit)
03 Feb - 05:05:42 10° WSW 05:10:14 82° NNW 05:14:21 10° ENE visible
03 Feb - 06:52:42 10° WNW 06:56:34 36° N 07:00:18 10° ENE visible
03 Feb - 08:39:14 10° WNW 08:43:06 44° NNE 08:47:03 10° E daylight
03 Feb - 10:25:13 10° WNW 10:29:12 56° SSW 10:33:32 10° SE daylight
03 Feb - 12:13:37 10° SW 12:14:55 11° SW 12:16:16 10° SSW daylight
04 Feb - 02:47:52 10° SSW 02:51:45 22° SE 02:55:16 10° E night (unlit)
04 Feb - 04:32:57 10° WSW 04:37:40 90° N 04:41:53 10° ENE night (unlit)
04 Feb - 06:19:59 10° WNW 06:23:59 37° N 06:27:45 10° ENE visible
04 Feb - 08:06:40 10° WNW 08:10:31 41° N 08:14:23 10° E daylight
04 Feb - 09:52:40 10° WNW 09:56:40 63° SSW 10:00:54 10° SE daylight
04 Feb - 11:40:34 10° WSW 11:42:22 12° SW 11:44:11 10° SSW daylight
05 Feb - 02:15:18 10° SSW 02:19:07 20° SE 02:22:36 10° E night (unlit)
05 Feb - 04:00:09 10° WSW 04:05:03 82° SSE 04:09:23 10° ENE night (unlit)
05 Feb - 05:47:12 10° W 05:51:22 39° N 05:55:13 10° ENE visible
05 Feb - 07:34:02 10° WNW 07:37:55 39° N 07:41:43 10° E visible
05 Feb - 09:20:06 10° WNW 09:24:07 71° SSW 09:28:15 10° ESE daylight
05 Feb - 11:07:39 10° WSW 11:09:47 14° SW 11:11:59 10° S daylight
